Time,TemperatureF,DewpointF,PressureIn,WindDirection,WindDirectionDegrees,WindSpeedMPH,WindSpeedGustMPH,Humidity,HourlyPrecipIn,Conditions,Clouds,dailyrainin,SolarRadiationWatts/m^2,SoftwareType,DateUTC
2013-02-28 00:01:00,45.0,25.0,-100.00,West,276,2.0,6.0,45,0.00,,,0.00,0.000000,,2013-02-28 06:01:00,
2013-02-28 00:11:00,45.0,25.0,-100.00,West,276,2.0,6.0,45,0.00,,,0.00,0.000000,,2013-02-28 06:11:00,
2013-02-28 00:22:00,45.0,25.0,-100.00,West,276,2.0,6.0,45,0.00,,,0.00,0.000000,,2013-02-28 06:22:00,
2013-02-28 00:32:00,45.0,26.0,-100.00,WNW,294,2.0,5.0,47,0.00,,,0.00,0.000000,,2013-02-28 06:32:00,
2013-02-28 00:52:00,45.0,26.0,-100.00,WNW,294,2.0,5.0,47,0.00,,,0.00,0.000000,,2013-02-28 06:52:00,
2013-02-28 01:01:00,45.0,26.0,-100.00,WNW,294,2.0,5.0,47,0.00,,,0.00,0.000000,,2013-02-28 07:01:00,
2013-02-28 01:11:00,45.0,26.0,-100.00,WNW,294,2.0,5.0,47,0.00,,,0.00,0.000000,,2013-02-28 07:11:00,
2013-02-28 01:21:00,45.0,26.0,-100.00,WNW,294,2.0,5.0,47,0.00,,,0.00,0.000000,,2013-02-28 07:21:00,
2013-02-28 01:32:00,43.0,28.0,-100.00,West,281,4.0,7.0,54,0.00,,,0.00,0.000000,,2013-02-28 07:32:00,
2013-02-28 01:52:00,43.0,28.0,-100.00,West,281,4.0,7.0,54,0.00,,,0.00,0.000000,,2013-02-28 07:52:00,
2013-02-28 02:01:00,43.0,28.0,-100.00,West,281,4.0,7.0,54,0.00,,,0.00,0.000000,,2013-02-28 08:01:00,
2013-02-28 02:11:00,43.0,28.0,-100.00,West,281,4.0,7.0,54,0.00,,,0.00,0.000000,,2013-02-28 08:11:00,
2013-02-28 02:22:00,43.0,28.0,-100.00,West,281,4.0,7.0,54,0.00,,,0.00,0.000000,,2013-02-28 08:22:00,
2013-02-28 02:32:00,44.0,26.0,-100.00,NW,312,5.0,15.0,48,0.00,,,0.00,0.000000,,2013-02-28 08:32:00,
2013-02-28 02:53:00,44.0,26.0,-100.00,NW,312,5.0,15.0,48,0.00,,,0.00,0.000000,,2013-02-28 08:53:00,
2013-02-28 03:03:00,44.0,26.0,-100.00,NW,312,5.0,15.0,48,0.00,,,0.00,0.000000,,2013-02-28 09:03:00,
2013-02-28 03:11:00,44.0,26.0,-100.00,NW,312,5.0,15.0,48,0.00,,,0.00,0.000000,,2013-02-28 09:11:00,
2013-02-28 03:22:00,44.0,26.0,-100.00,NW,312,5.0,15.0,48,0.00,,,0.00,0.000000,,2013-02-28 09:22:00,
2013-02-28 03:32:00,42.0,26.0,-100.00,NW,306,4.0,10.0,52,0.00,,,0.00,0.000000,,2013-02-28 09:32:00,
2013-02-28 03:52:00,42.0,26.0,-100.00,NW,306,4.0,10.0,52,0.00,,,0.00,0.000000,,2013-02-28 09:52:00,
2013-02-28 04:02:00,42.0,26.0,-100.00,NW,306,4.0,10.0,52,0.00,,,0.00,0.000000,,2013-02-28 10:02:00,
2013-02-28 04:11:00,42.0,26.0,-100.00,NW,306,4.0,10.0,52,0.00,,,0.00,0.000000,,2013-02-28 10:11:00,
2013-02-28 04:22:00,42.0,26.0,-100.00,NW,306,4.0,10.0,52,0.00,,,0.00,0.000000,,2013-02-28 10:22:00,
2013-02-28 04:32:00,41.0,25.0,-100.00,NNW,327,3.0,12.0,53,0.00,,,0.00,0.000000,,2013-02-28 10:32:00,
2013-02-28 04:52:00,41.0,25.0,-100.00,NNW,327,3.0,12.0,53,0.00,,,0.00,0.000000,,2013-02-28 10:52:00,
2013-02-28 05:01:00,41.0,25.0,-100.00,NNW,327,3.0,12.0,53,0.00,,,0.00,0.000000,,2013-02-28 11:01:00,
2013-02-28 05:11:00,41.0,25.0,-100.00,NNW,327,3.0,12.0,53,0.00,,,0.00,0.000000,,2013-02-28 11:11:00,
2013-02-28 05:22:00,41.0,25.0,-100.00,NNW,327,3.0,12.0,53,0.00,,,0.00,0.000000,,2013-02-28 11:22:00,
2013-02-28 05:32:00,39.0,24.0,-100.00,NW,319,4.0,15.0,55,0.00,,,0.00,0.000000,,2013-02-28 11:32:00,
2013-02-28 05:52:00,39.0,24.0,-100.00,NW,319,4.0,15.0,55,0.00,,,0.00,0.000000,,2013-02-28 11:52:00,
2013-02-28 06:02:00,39.0,24.0,-100.00,NW,319,4.0,15.0,55,0.00,,,0.00,0.000000,,2013-02-28 12:02:00,
2013-02-28 06:11:00,39.0,24.0,-100.00,NW,319,4.0,15.0,55,0.00,,,0.00,0.000000,,2013-02-28 12:11:00,
2013-02-28 06:22:00,39.0,24.0,-100.00,NW,319,4.0,15.0,55,0.00,,,0.00,0.000000,,2013-02-28 12:22:00,
2013-02-28 06:32:00,37.0,25.0,-100.00,NW,317,2.0,9.0,62,0.00,,,0.00,0.000000,,2013-02-28 12:32:00,
2013-02-28 06:52:00,37.0,25.0,-100.00,NW,317,2.0,9.0,62,0.00,,,0.00,0.000000,,2013-02-28 12:52:00,
2013-02-28 07:02:00,37.0,25.0,-100.00,NW,317,2.0,9.0,62,0.00,,,0.00,0.000000,,2013-02-28 13:02:00,
2013-02-28 07:11:00,37.0,25.0,-100.00,NW,317,2.0,9.0,62,0.00,,,0.00,0.000000,,2013-02-28 13:11:00,
2013-02-28 07:22:00,37.0,25.0,-100.00,NW,317,2.0,9.0,62,0.00,,,0.00,0.000000,,2013-02-28 13:22:00,
2013-02-28 07:32:00,38.0,27.0,-100.00,WNW,287,3.0,6.0,64,0.00,,,0.00,40.000000,,2013-02-28 13:32:00,
2013-02-28 07:52:00,38.0,27.0,-100.00,WNW,287,3.0,6.0,64,0.00,,,0.00,40.000000,,2013-02-28 13:52:00,
2013-02-28 08:01:00,38.0,27.0,-100.00,WNW,287,3.0,6.0,64,0.00,,,0.00,40.000000,,2013-02-28 14:01:00,
2013-02-28 08:11:00,38.0,27.0,-100.00,WNW,287,3.0,6.0,64,0.00,,,0.00,40.000000,,2013-02-28 14:11:00,
2013-02-28 08:22:00,38.0,27.0,-100.00,WNW,287,3.0,6.0,64,0.00,,,0.00,40.000000,,2013-02-28 14:22:00,
2013-02-28 08:32:00,40.0,26.0,-100.00,WNW,300,4.0,9.0,57,0.00,,,0.00,137.000000,,2013-02-28 14:32:00,
2013-02-28 08:52:00,40.0,26.0,-100.00,WNW,300,4.0,9.0,57,0.00,,,0.00,137.000000,,2013-02-28 14:52:00,
2013-02-28 09:02:00,40.0,26.0,-100.00,WNW,300,4.0,9.0,57,0.00,,,0.00,137.000000,,2013-02-28 15:02:00,
2013-02-28 09:11:00,40.0,26.0,-100.00,WNW,300,4.0,9.0,57,0.00,,,0.00,137.000000,,2013-02-28 15:11:00,
2013-02-28 09:21:00,40.0,26.0,-100.00,WNW,300,4.0,9.0,57,0.00,,,0.00,137.000000,,2013-02-28 15:21:00,
2013-02-28 09:32:00,45.0,27.0,-100.00,NW,307,5.0,10.0,48,0.00,,,0.00,300.000000,,2013-02-28 15:32:00,
2013-02-28 09:52:00,45.0,27.0,-100.00,NW,307,5.0,10.0,48,0.00,,,0.00,300.000000,,2013-02-28 15:52:00,
2013-02-28 10:02:00,45.0,27.0,-100.00,NW,307,5.0,10.0,48,0.00,,,0.00,300.000000,,2013-02-28 16:02:00,
2013-02-28 10:12:00,45.0,27.0,-100.00,NW,307,5.0,10.0,48,0.00,,,0.00,300.000000,,2013-02-28 16:12:00,
2013-02-28 10:22:00,45.0,27.0,-100.00,NW,307,5.0,10.0,48,0.00,,,0.00,300.000000,,2013-02-28 16:22:00,
2013-02-28 10:32:00,49.0,25.0,-100.00,NW,308,6.0,13.0,38,0.00,,,0.00,628.000000,,2013-02-28 16:32:00,
2013-02-28 10:52:00,49.0,25.0,-100.00,NW,308,6.0,13.0,38,0.00,,,0.00,628.000000,,2013-02-28 16:52:00,
2013-02-28 11:02:00,49.0,25.0,-100.00,NW,308,6.0,13.0,38,0.00,,,0.00,628.000000,,2013-02-28 17:02:00,
2013-02-28 11:12:00,49.0,25.0,-100.00,NW,308,6.0,13.0,38,0.00,,,0.00,628.000000,,2013-02-28 17:12:00,
2013-02-28 11:22:00,49.0,25.0,-100.00,NW,308,6.0,13.0,38,0.00,,,0.00,628.000000,,2013-02-28 17:22:00,
2013-02-28 11:32:00,52.0,22.0,-100.00,NW,324,6.0,14.0,30,0.00,,,0.00,682.000000,,2013-02-28 17:32:00,
2013-02-28 11:53:00,52.0,22.0,-100.00,NW,324,6.0,14.0,30,0.00,,,0.00,682.000000,,2013-02-28 17:53:00,
2013-02-28 12:02:00,52.0,22.0,-100.00,NW,324,6.0,14.0,30,0.00,,,0.00,682.000000,,2013-02-28 18:02:00,
2013-02-28 12:11:00,52.0,22.0,-100.00,NW,324,6.0,14.0,30,0.00,,,0.00,682.000000,,2013-02-28 18:11:00,
2013-02-28 12:22:00,52.0,22.0,-100.00,NW,324,6.0,14.0,30,0.00,,,0.00,682.000000,,2013-02-28 18:22:00,
2013-02-28 12:32:00,51.0,21.0,-100.00,NW,320,5.0,13.0,30,0.00,,,0.00,538.000000,,2013-02-28 18:32:00,
2013-02-28 12:52:00,51.0,21.0,-100.00,NW,320,5.0,13.0,30,0.00,,,0.00,538.000000,,2013-02-28 18:52:00,
2013-02-28 13:02:00,51.0,21.0,-100.00,NW,320,5.0,13.0,30,0.00,,,0.00,538.000000,,2013-02-28 19:02:00,
2013-02-28 13:11:00,51.0,21.0,-100.00,NW,320,5.0,13.0,30,0.00,,,0.00,538.000000,,2013-02-28 19:11:00,
2013-02-28 13:21:00,51.0,21.0,-100.00,NW,320,5.0,13.0,30,0.00,,,0.00,538.000000,,2013-02-28 19:21:00,
2013-02-28 13:32:00,55.0,21.0,-100.00,NNE,29,5.0,14.0,26,0.00,,,0.00,533.000000,,2013-02-28 19:32:00,
2013-02-28 13:52:00,55.0,21.0,-100.00,NNE,29,5.0,14.0,26,0.00,,,0.00,533.000000,,2013-02-28 19:52:00,
2013-02-28 14:01:00,55.0,21.0,-100.00,NNE,29,5.0,14.0,26,0.00,,,0.00,533.000000,,2013-02-28 20:01:00,
2013-02-28 14:12:00,55.0,21.0,-100.00,NNE,29,5.0,14.0,26,0.00,,,0.00,533.000000,,2013-02-28 20:12:00,
2013-02-28 14:22:00,55.0,21.0,-100.00,NNE,29,5.0,14.0,26,0.00,,,0.00,533.000000,,2013-02-28 20:22:00,
2013-02-28 14:32:00,58.0,21.0,-100.00,NNW,339,4.0,14.0,24,0.00,,,0.00,734.000000,,2013-02-28 20:32:00,
2013-02-28 14:52:00,58.0,21.0,-100.00,NNW,339,4.0,14.0,24,0.00,,,0.00,734.000000,,2013-02-28 20:52:00,
2013-02-28 15:02:00,58.0,21.0,-100.00,NNW,339,4.0,14.0,24,0.00,,,0.00,734.000000,,2013-02-28 21:02:00,
2013-02-28 15:11:00,58.0,21.0,-100.00,NNW,339,4.0,14.0,24,0.00,,,0.00,734.000000,,2013-02-28 21:11:00,
2013-02-28 15:22:00,58.0,21.0,-100.00,NNW,339,4.0,14.0,24,0.00,,,0.00,734.000000,,2013-02-28 21:22:00,
2013-02-28 15:32:00,59.0,19.0,-100.00,WNW,298,5.0,15.0,21,0.00,,,0.00,569.000000,,2013-02-28 21:32:00,
2013-02-28 15:52:00,59.0,19.0,-100.00,WNW,298,5.0,15.0,21,0.00,,,0.00,569.000000,,2013-02-28 21:52:00,
2013-02-28 16:01:00,59.0,19.0,-100.00,WNW,298,5.0,15.0,21,0.00,,,0.00,569.000000,,2013-02-28 22:01:00,
2013-02-28 16:11:00,59.0,19.0,-100.00,WNW,298,5.0,15.0,21,0.00,,,0.00,569.000000,,2013-02-28 22:11:00,
2013-02-28 16:22:00,59.0,19.0,-100.00,WNW,298,5.0,15.0,21,0.00,,,0.00,569.000000,,2013-02-28 22:22:00,
2013-02-28 16:32:00,57.0,21.0,-100.00,West,279,7.0,15.0,24,0.00,,,0.00,305.000000,,2013-02-28 22:32:00,
2013-02-28 16:52:00,57.0,21.0,-100.00,West,279,7.0,15.0,24,0.00,,,0.00,305.000000,,2013-02-28 22:52:00,
2013-02-28 17:01:00,57.0,21.0,-100.00,West,279,7.0,15.0,24,0.00,,,0.00,305.000000,,2013-02-28 23:01:00,
2013-02-28 17:11:00,57.0,21.0,-100.00,West,279,7.0,15.0,24,0.00,,,0.00,305.000000,,2013-02-28 23:11:00,
2013-02-28 17:22:00,57.0,21.0,-100.00,West,279,7.0,15.0,24,0.00,,,0.00,305.000000,,2013-02-28 23:22:00,
2013-02-28 17:32:00,55.0,22.0,-100.00,WNW,294,4.0,12.0,27,0.00,,,0.00,165.000000,,2013-02-28 23:32:00,
2013-02-28 17:53:00,55.0,22.0,-100.00,WNW,294,4.0,12.0,27,0.00,,,0.00,165.000000,,2013-02-28 23:53:00,
2013-02-28 18:01:00,55.0,22.0,-100.00,WNW,294,4.0,12.0,27,0.00,,,0.00,165.000000,,2013-03-01 00:01:00,
2013-02-28 18:11:00,55.0,22.0,-100.00,WNW,294,4.0,12.0,27,0.00,,,0.00,165.000000,,2013-03-01 00:11:00,
2013-02-28 18:22:00,55.0,22.0,-100.00,WNW,294,4.0,12.0,27,0.00,,,0.00,165.000000,,2013-03-01 00:22:00,
2013-02-28 18:32:00,50.0,23.0,-100.00,West,276,3.0,9.0,35,0.00,,,0.00,14.000000,,2013-03-01 00:32:00,
2013-02-28 18:52:00,50.0,23.0,-100.00,West,276,3.0,9.0,35,0.00,,,0.00,14.000000,,2013-03-01 00:52:00,
2013-02-28 19:01:00,50.0,23.0,-100.00,West,276,3.0,9.0,35,0.00,,,0.00,14.000000,,2013-03-01 01:01:00,
2013-02-28 19:11:00,50.0,23.0,-100.00,West,276,3.0,9.0,35,0.00,,,0.00,14.000000,,2013-03-01 01:11:00,
2013-02-28 19:21:00,50.0,23.0,-100.00,West,276,3.0,9.0,35,0.00,,,0.00,14.000000,,2013-03-01 01:21:00,
2013-02-28 19:32:00,48.0,25.0,-100.00,West,260,2.0,5.0,41,0.00,,,0.00,0.000000,,2013-03-01 01:32:00,
2013-02-28 19:52:00,48.0,25.0,-100.00,West,260,2.0,5.0,41,0.00,,,0.00,0.000000,,2013-03-01 01:52:00,
2013-02-28 20:01:00,48.0,25.0,-100.00,West,260,2.0,5.0,41,0.00,,,0.00,0.000000,,2013-03-01 02:01:00,
2013-02-28 20:11:00,48.0,25.0,-100.00,West,260,2.0,5.0,41,0.00,,,0.00,0.000000,,2013-03-01 02:11:00,
2013-02-28 20:21:00,48.0,25.0,-100.00,West,260,2.0,5.0,41,0.00,,,0.00,0.000000,,2013-03-01 02:21:00,
2013-02-28 20:32:00,44.0,27.0,-100.00,WSW,252,2.0,3.0,50,0.00,,,0.00,0.000000,,2013-03-01 02:32:00,
2013-02-28 20:52:00,44.0,27.0,-100.00,WSW,252,2.0,3.0,50,0.00,,,0.00,0.000000,,2013-03-01 02:52:00,
2013-02-28 21:02:00,44.0,27.0,-100.00,WSW,252,2.0,3.0,50,0.00,,,0.00,0.000000,,2013-03-01 03:02:00,
2013-02-28 21:11:00,44.0,27.0,-100.00,WSW,252,2.0,3.0,50,0.00,,,0.00,0.000000,,2013-03-01 03:11:00,
2013-02-28 21:21:00,44.0,27.0,-100.00,WSW,252,2.0,3.0,50,0.00,,,0.00,0.000000,,2013-03-01 03:21:00,
2013-02-28 21:32:00,41.0,28.0,-100.00,WSW,256,2.0,5.0,59,0.00,,,0.00,0.000000,,2013-03-01 03:32:00,
2013-02-28 21:52:00,41.0,28.0,-100.00,WSW,256,2.0,5.0,59,0.00,,,0.00,0.000000,,2013-03-01 03:52:00,
2013-02-28 22:01:00,41.0,28.0,-100.00,WSW,256,2.0,5.0,59,0.00,,,0.00,0.000000,,2013-03-01 04:01:00,
2013-02-28 22:11:00,41.0,28.0,-100.00,WSW,256,2.0,5.0,59,0.00,,,0.00,0.000000,,2013-03-01 04:11:00,
2013-02-28 22:21:00,41.0,28.0,-100.00,WSW,256,2.0,5.0,59,0.00,,,0.00,0.000000,,2013-03-01 04:21:00,
2013-02-28 22:32:00,37.0,30.0,-100.00,SW,229,0.0,3.0,75,0.00,,,0.00,0.000000,,2013-03-01 04:32:00,
2013-02-28 22:52:00,37.0,30.0,-100.00,SW,229,0.0,3.0,75,0.00,,,0.00,0.000000,,2013-03-01 04:52:00,
2013-02-28 23:02:00,37.0,30.0,-100.00,SW,229,0.0,3.0,75,0.00,,,0.00,0.000000,,2013-03-01 05:02:00,
2013-02-28 23:11:00,37.0,30.0,-100.00,SW,229,0.0,3.0,75,0.00,,,0.00,0.000000,,2013-03-01 05:11:00,
2013-02-28 23:22:00,37.0,30.0,-100.00,SW,229,0.0,3.0,75,0.00,,,0.00,0.000000,,2013-03-01 05:22:00,
2013-02-28 23:32:00,35.0,29.0,-100.00,SW,234,0.0,3.0,80,0.00,,,0.00,0.000000,,2013-03-01 05:32:00,
2013-02-28 23:53:00,35.0,29.0,-100.00,SW,234,0.0,3.0,80,0.00,,,0.00,0.000000,,2013-03-01 05:53:00,